Location: St Andrew
(49.4460°N, 2.5750°W)
Time: 22:40:43
(UTC+01:00)

Daily predictions for brighter satellites

Satellite Brightness Start Highest point End
(mag) Time Altitude Azimuth Time Altitude Azimuth Time Altitude Azimuth
Okean 2 Rocket 3.5 20:43:09 10° SSW 20:47:39 71° WNW 20:52:12 10° N
BREEZE-M DEB (TANK) 3.7 20:45:17 10° SSW 20:48:14 30° SE 20:55:17 10° ENE
NOSS 3-1 (C) 4.2 20:47:13 10° WSW 20:53:06 61° NW 20:59:52 10° NE
CZ-2D R/B 4.2 20:49:49 10° S 20:53:35 51° W 20:57:22 10° NNW
Cosmos 1850 Rocket 4.2 20:51:22 10° NNW 20:56:45 84° WSW 21:02:02 10° SSE
Cosmos 1607 4.1 20:52:11 10° NW 20:58:42 89° SW 21:05:11 10° SE
Cosmos 1452 Rocket 3.7 20:53:47 10° SSW 20:59:05 83° WNW 21:04:26 10° NNE
Cosmos 1420 Rocket 3.9 20:55:23 10° SSW 21:00:32 75° ESE 21:05:45 10° NNE
SPOT 5 4.3 20:57:02 10° ESE 21:00:33 21° ENE 21:03:56 10° NNE
Lacrosse 5 2.7 20:57:43 10° S 21:02:00 28° SE 21:06:17 10° ENE
NOSS 2-3 (C) 4.3 20:57:33 10° S 21:02:03 42° ESE 21:07:18 10° NE
USA 215 4.0 20:56:14 10° ENE 21:02:35 56° NNW 21:08:57 10° W
Helios 1B rocket 3.4 20:59:38 10° NE 21:03:11 27° E 21:06:42 10° SSE
SeaSat 1 2.7 21:02:01 10° NE 21:06:48 46° ESE 21:11:31 10° S
ARGOS 4.0 21:03:55 10° SE 21:08:38 33° ENE 21:13:23 10° N
S3M 4.3 21:03:31 10° NNW 21:09:45 72° W 21:16:03 10° S
BREEZE-M DEB (TANK) 2.3 21:07:49 10° SW 21:10:30 27° SSE 21:11:49 15° ESE
CZ-4B DEB 3.3 21:08:22 12° SE 21:10:46 34° ENE 21:13:25 10° N
USA 238 DEB 4.0 21:03:55 10° NW 21:10:59 67° NE 21:17:38 12° SE
Cosmos 1553 Rocket 4.4 21:04:58 10° NNW 21:11:05 65° W 21:17:05 10° S
USA 238 4.0 21:04:01 10° NW 21:11:06 67° NE 21:17:43 12° SE
Cosmos 2263 Rocket 2.4 21:06:19 10° NNW 21:12:02 74° WSW 21:17:42 10° SSE
SL-8 R/B 3.8 21:07:19 10° W 21:12:05 68° SSW 21:16:23 13° ESE
Cosmos 2278 Rocket 4.0 21:10:23 10° N 21:14:28 20° NE 21:18:34 10° E
Cosmos 1844 Rocket 3.5 21:13:44 10° NNW 21:19:01 37° NE 21:23:30 14° ESE
Meteor 1-11 Rocket 3.8 21:13:24 10° S 21:19:14 89° E 21:24:58 10° NNE
Cosmos 2322 Rocket 2.2 21:13:58 10° SSW 21:19:40 80° ESE 21:25:24 10° NNE
Cosmos 2266 Rocket 3.9 21:13:58 10° S 21:19:56 68° E 21:25:57 10° NNE
Cosmos 2315 Rocket 4.1 21:15:50 10° N 21:22:03 63° ENE 21:28:16 10° SSE
USA 186 3.9 21:20:04 10° SSW 21:23:03 29° W 21:26:02 10° NNW
Cosmos 220 Rocket 4.1 21:21:40 10° NNW 21:25:59 77° WSW 21:30:18 10° SSE
ATLAS 3B R/B 2.7 21:19:39 10° NW 21:26:32 84° NE 21:32:09 15° SE
Molniya-1 4.3 21:24:13 10° NNW 21:26:33 38° NE 21:28:36 18° ESE
Okean 1 Rocket 3.0 21:23:42 10° S 21:28:00 64° E 21:32:22 10° NNE
Cosmos 1025 Rocket 3.0 21:24:16 10° N 21:28:33 67° ENE 21:32:30 12° SSE
Cosmos 1300 Rocket 3.5 21:25:02 10° S 21:29:20 86° W 21:33:41 10° N
SL-16 R/B 2.3 21:26:01 10° SSW 21:31:42 86° WNW 21:37:26 10° NNE
BREEZE M DEB (TANK) 3.6 21:22:06 10° W 21:31:56 88° N 21:34:52 13° E
Okean 2 3.4 21:28:51 10° N 21:32:56 64° ENE 21:36:18 14° SSE
Meteor 1-23 Rocket 4.3 21:27:45 10° NNW 21:33:20 79° W 21:38:54 10° S
Okean 1-7 Rocket 3.6 21:31:57 10° N 21:36:27 76° E 21:40:35 12° SSE
Cosmos 2219 Rocket 3.8 21:37:49 15° ESE 21:38:13 15° E 21:41:15 10° ENE
MetOp-B 4.2 21:34:02 14° SSE 21:38:36 63° ENE 21:43:54 10° N
Resurs 01 Rocket 4.0 21:38:11 10° SW 21:41:42 23° W 21:45:15 10° NW
NOSS 2-3 (D) 3.9 21:36:59 10° SW 21:41:46 77° SE 21:47:31 10° NE
Cosmos 2322 4.0 21:37:33 10° S 21:42:52 44° ESE 21:48:15 10° NE
YAOGAN 6 3.4 21:39:32 10° S 21:42:58 48° W 21:46:24 10° NNW
Terra 3.4 21:41:21 15° E 21:43:41 21° ENE 21:47:11 10° NNE
NOSS 3-2 (C) 4.3 21:40:36 10° NW 21:47:43 56° NE 21:53:45 18° ESE
Cosmos 1515 3.6 21:46:30 10° N 21:50:20 83° E 21:52:54 20° SSE
ERS-1 Rocket 2.9 21:46:38 14° SSE 21:50:58 89° E 21:56:02 10° NNW
Cosmos 2360 Rocket 2.2 21:46:55 10° SSW 21:52:28 62° ESE 21:58:02 10° NE
ERBS 4.0 21:49:43 10° W 21:52:58 36° NNW 21:56:14 10° NE
COSMOS 2428 3.5 21:50:11 17° SSE 21:53:41 31° ESE 21:58:39 10° NE
Cosmos 1980 Rocket 4.4 21:49:22 10° WSW 21:54:10 28° NW 21:59:00 10° NNE
Cosmos 1975 3.4 21:53:20 26° SE 21:54:46 36° E 21:58:27 10° NNE
Helios 1A 4.0 21:51:57 10° S 21:56:02 46° W 22:00:09 10° NNW
Cosmos 1844 4.1 21:51:19 10° NNW 21:56:51 52° NE 22:00:13 24° ESE
H-2A R/B 4.1 21:55:20 13° E 21:56:55 15° ENE 21:59:25 10° NNE
Abrixas rocket 2.2 21:55:16 10° W 21:58:31 61° SSW 21:59:32 38° SE
USA 245 3.6 21:59:05 23° SSE 22:02:07 71° ENE 22:06:07 10° N
Meteor 1-5 Rocket 4.5 21:59:43 10° SSW 22:04:59 65° WNW 22:10:17 10° N
Aureole 3 Rocket 4.5 21:56:13 10° N 22:05:12 77° ENE 22:10:05 20° SSE
Cosmos 2333 Rocket 3.5 22:07:14 20° E 22:07:14 20° E 22:11:09 10° NE
ATLAS 2AS CENTAUR R/B 3.0 22:00:41 10° SW 22:08:31 85° SE 22:16:44 10° NE
H-2A R/B 2.0 22:06:28 26° SE 22:09:14 65° ENE 22:14:10 10° N
Cosmos 1500 3.1 22:07:20 24° S 22:09:33 72° E 22:13:26 10° NNE
Meteor 1-29 3.2 22:06:17 10° N 22:09:43 70° WNW 22:12:43 13° SSW
COSMOS 2455 4.4 22:08:15 10° NNW 22:13:12 25° NNE 22:17:36 12° E
Cosmos 1238 Rocket 4.1 22:06:53 10° N 22:13:43 88° E 22:18:21 20° S
Cosmos 1626 Rocket 4.3 22:10:01 10° N 22:14:00 34° ENE 22:15:00 30° ESE
CENTAUR R/B 3.8 22:08:32 10° NW 22:15:39 44° NNE 22:21:53 16° E
Cosmos 1892 Rocket 3.5 22:12:12 10° N 22:16:39 87° W 22:18:53 29° S
NOSS 3-4 (A) 4.4 22:19:25 26° ESE 22:19:29 26° ESE 22:24:41 10° ENE
NOSS 3-4 (C) 4.4 22:19:36 26° ESE 22:19:36 26° ESE 22:24:47 10° ENE
EXPRESS MD2 3.5 22:16:24 10° WSW 22:19:41 87° S 22:26:17 10° E
Cosmos 1486 Rocket 4.1 22:17:09 10° NNW 22:22:25 73° WSW 22:25:10 28° S
Cosmos 1302 Rocket 4.0 22:19:12 16° S 22:23:22 63° ESE 22:28:36 10° NNE
Cosmos 2237 Rocket 3.7 22:25:16 18° E 22:25:16 18° E 22:28:11 10° ENE
ATLAS CENTAUR R/B 3.5 22:24:07 10° N 22:26:27 16° NNE 22:28:18 12° ENE
Cosmos 1110 Rocket 4.4 22:27:02 10° SW 22:32:10 62° WNW 22:37:20 10° NNE
Cosmos 1066 Rocket 4.3 22:26:54 10° NNW 22:32:18 73° W 22:35:26 26° S
Cosmos 1437 Rocket 3.0 22:32:58 47° ESE 22:33:04 47° E 22:36:53 10° NNE
Cosmos 1544 Rocket 3.5 22:33:03 35° S 22:34:55 82° E 22:39:25 10° NNE
Nadezhda 1 Rocket 4.0 22:29:50 10° N 22:36:11 76° E 22:39:16 33° SSE
SPOT 5 3.2 22:35:51 28° S 22:38:17 60° WSW 22:42:52 10° NNW
Helios 1B rocket 4.1 22:34:49 10° N 22:38:31 33° WNW 22:42:12 10° SW
GP-B 3.5 22:35:28 10° NNE 22:39:46 44° E 22:40:10 43° ESE
BREEZE M DEB (TANK) 4.0 22:37:11 10° SW 22:39:46 21° SSW 22:39:46 21° SSW
Timation 1 Rocket 4.4 22:35:37 10° NNW 22:41:36 66° NE 22:43:56 38° SE
SeaSat 1 4.1 22:39:46 10° NNE 22:44:13 35° NW 22:48:39 10° WSW
IGS 5A 3.5 22:43:46 53° ESE 22:44:20 59° ENE 22:48:27 10° N
Lacrosse 5 2.0 22:39:30 10° WSW 22:44:36 77° NNW 22:49:42 10° NE
USA 215 4.1 22:38:51 10° ENE 22:45:01 47° N 22:51:13 10° WNW
Cosmos 1455 Rocket 3.0 22:45:47 40° SSW 22:47:22 86° W 22:51:53 10° N
Cosmos 405 3.8 22:46:37 30° SW 22:48:03 50° WNW 22:51:34 10° N
ARGOS 4.0 22:45:20 20° SSW 22:48:46 43° W 22:53:54 10° NNW
Meteor 1-21 4.1 22:46:35 10° N 22:52:14 82° ENE 22:54:10 44° SSE
Cosmos 2181 Rocket 4.4 22:47:57 10° N 22:54:12 49° ENE 22:56:08 38° ESE
Cosmos 1666 2.7 22:55:07 67° ENE 22:55:07 67° ENE 22:58:47 10° NNE
Cosmos 1709 Rocket 4.3 22:56:46 41° SE 22:58:09 48° E 23:04:08 10° NNE
DMSP B5D2-2 4.0 22:53:14 10° NNE 22:58:32 75° ESE 23:00:08 46° S
Cosmos 2278 Rocket 2.2 22:53:50 10° NNW 22:59:33 77° ENE 23:01:08 49° SE
NOSS 3-2 (A) 4.2 22:52:37 10° NW 22:59:56 64° SW 23:03:29 35° SSE
Cosmos 1354 Rocket 4.2 22:54:38 10° NNW 22:59:57 67° WSW 23:01:33 44° S
Cosmos 1842 3.2 22:57:06 10° N 23:00:56 70° ENE 23:00:56 70° ENE
Cosmos 1844 Rocket 3.4 22:57:38 10° NW 23:03:03 45° WSW 23:05:10 31° SSW
Nimbus 7 Rocket 4.3 22:58:55 10° NNE 23:04:49 89° WNW 23:07:50 31° SSW
Aureole 2 Rocket 3.8 23:06:23 30° NNE 23:06:23 30° NNE 23:08:08 10° NNE
Landsat 7 4.1 23:04:25 45° SSW 23:05:40 62° WSW 23:10:25 10° NNW
SPOT 1/Viking Rocket 4.4 23:08:45 28° SSW 23:10:56 43° W 23:15:56 10° NNW
Cosmos 1743 3.1 23:10:57 54° WSW 23:11:18 57° WNW 23:15:05 10° N
Cosmos 1818 3.4 23:08:50 22° SW 23:12:23 86° SE 23:17:52 10° NE
ARGOS Delta rocket 3.8 23:08:30 10° NNE 23:12:56 59° E 23:12:56 59° E
ATLAS 3B R/B 4.2 23:11:17 10° WNW 23:16:26 24° WSW 23:19:25 17° SW
Cosmos 972 Rocket 4.4 23:17:10 50° ESE 23:17:29 51° ESE 23:23:23 10° NNE
CZ-2C R/B 4.2 23:14:57 10° NE 23:18:22 21° E 23:18:22 21° E
CARTOSAT-1 3.8 23:19:08 57° SW 23:19:30 59° WSW 23:23:49 10° NNW
Terra 2.0 23:20:15 54° SW 23:21:01 62° WSW 23:25:46 10° NNW
Cosmos 2219 Rocket 2.1 23:19:28 45° SSW 23:21:17 84° ESE 23:26:59 10° NNE
USA 81 3.9 23:16:24 10° N 23:21:44 81° E 23:22:28 66° SSE
ALOS 2 4.3 23:21:49 21° ENE 23:21:55 21° ENE 23:25:13 10° NNE
Meteor 2-9 Rocket 4.1 23:22:05 58° SSE 23:23:12 76° E 23:28:51 10° NNE
CZ-2C R/B 3.8 23:23:13 34° ENE 23:23:31 34° ENE 23:27:53 10° N
DNEPR-1 R/B 3.8 23:23:28 10° NW 23:27:48 64° NE 23:28:01 64° ENE
Cosmos 1602 Rocket 4.1 23:23:51 10° NNW 23:28:02 47° W 23:28:23 46° WSW
H-2A R/B 2.1 23:32:28 80° WNW 23:32:28 80° WNW 23:36:46 10° NNW
SL-16 R/B 3.5 23:34:11 25° E 23:34:11 25° E 23:37:29 10° NE
Cosmos 1953 Rocket 4.0 23:30:02 10° N 23:34:01 52° NE 23:34:01 52° NE
Cosmos 1777 Rocket 4.4 23:29:58 10° NNW 23:35:07 50° ENE 23:35:40 48° E
Cosmos 2360 Rocket 4.1 23:32:00 10° WSW 23:36:53 29° NW 23:41:47 10° NNE
Meteor 2-5 Rocket 4.2 23:31:44 10° N 23:37:28 49° ENE 23:38:17 46° E
COSMOS 2428 3.4 23:32:08 10° SW 23:37:43 52° NW 23:43:20 10° NNE
NOSS 3-2 (C) 4.4 23:31:39 10° NW 23:38:49 51° WSW 23:41:11 40° SSW
NOSS 0 Rocket 3.8 23:40:04 56° S 23:41:28 80° ESE 23:47:44 10° NNE
H-2A R/B 4.0 23:47:07 16° WSW 23:49:06 19° W 23:52:39 10° NW
ATLAS CENTAUR R/B 3.5 23:35:51 10° WNW 23:50:27 70° NNE 23:52:38 41° E
Cosmos 2333 Rocket 2.3 23:49:11 48° SW 23:50:46 75° WNW 23:56:28 10° NNE
Spot 4 4.0 23:53:06 61° W 23:53:06 61° W 23:57:49 10° NNW
deb Chang Zheng 4 4.0 23:48:55 10° NNE 23:52:31 59° NNE 23:52:31 59° NNE
Mayak 1.2 23:54:18 10° NE 23:55:03 13° ENE 23:55:03 13° ENE
